Regional Weather Roundup
Issued by NWS

Home | Current Version | Previous Version | Text Only | Print | Product List | Glossary Off
Versions: 1 2 3 4 5 6 7 8 9 10 11 12 13 14 15 16 17 18 19 20 21 22 23 24 25 26 27 28 29 30 31 32 33 34 35 36 37 38 39 40 41 42 43 44 45 46 47 48

000
ASUS45 KBOU 211707
RWRCO

WEATHER ROUNDUP FOR COLORADO
NATIONAL WEATHER SERVICE DENVER/BOULDER CO
1100 AM MDT SUN SEP 21 2014

NOTE: "FAIR" INDICATES FEW OR NO CLOUDS BELOW 12000 FEET WITH NO
SIGNIFICANT WEATHER AND/OR OBSTRUCTIONS TO VISIBILITY.

COZ001>005-013-030-031-211800-
...NORTHWEST COLORADO...

CITY           SKY/WX    TMP DP  RH WIND       PRES   REMARKS
CRAIG          PTSUNNY   57  41  55 CALM      30.38R
HAYDEN         PTSUNNY   63  43  48 NW5       30.39R
MEEKER         NOT AVBL
MOUNT WERNER   NOT AVBL
STEAMBOAT SPGS CLOUDY    63  43  48 CALM      30.39R
WALDEN         SUNNY     59  41  51 CALM      30.45R
$$

COZ006>008-011-211800-
...WEST CENTRAL VALLEYS...

CITY           SKY/WX    TMP DP  RH WIND       PRES   REMARKS
GRAND JUNCTION CLOUDY    63  58  83 SE14      30.28R
MONTROSE       PTSUNNY   65  57  75 N8        30.36F
EAGLE          CLOUDY    57  45  62 W3        30.43R
RIFLE          LGT RAIN  61  51  70 CALM      30.38R
DELTA          RAIN      67  58  73 E3        30.33F
NUCLA          NOT AVBL
$$

COZ017>023-064>068-211800-
...SOUTHWEST COLORADO...

CITY           SKY/WX    TMP DP  RH WIND       PRES   REMARKS
DURANGO        SUNNY     68  54  60 SE6       30.39S
CORTEZ         LGT RAIN  74  56  53 SE16G28   30.30S
PAGOSA SPRINGS CLOUDY    68  46  46 S5        30.46S
TELLURIDE      NOT AVBL
WOLF CREEK PAS CLOUDY    48  41  76 SW8       30.72S
$$

COZ009-010-012-014-032>034-037-058>063-211800-
...CENTRAL COLORADO...

CITY           SKY/WX    TMP DP  RH WIND       PRES   REMARKS
ASPEN          CLOUDY    61  44  53 N6        30.47R
BUENA VISTA    LGT RAIN  54  52  91 E8        30.53R
COPPER MTN     CLOUDY    54  41  62 S13       30.73R
BERTHOUD PASS  CLOUDY    43  41  93 W7        30.76R
COTTONWOOD PAS RAIN      52  48  87 SW9       30.62S VSB<1/4
GUNNISON       CLOUDY    54  48  82 N6        30.53F
KREMMLING      CLOUDY    63  41  45 CALM      30.44S
LEADVILLE      CLOUDY    53  44  71 S14       30.59S
MONARCH PASS   LGT RAIN  41  37  87 N3        30.84S VSB<1/4
SALIDA         CLOUDY    56  54  92 SW3       30.58S
SUNLIGHT       RAIN      46  45  93 S3        30.68R
WILKERSON PASS NOT AVBL
$$

COZ069>075-211800-
...SAN LUIS VALLEY/SANGRE DE CRISTO MOUNTAINS...

CITY           SKY/WX    TMP DP  RH WIND       PRES   REMARKS
ALAMOSA        MOSUNNY   69  44  40 S9        30.45F
LA VETA PASS   FOG       50  48  93 NE5       30.63S VSB<1/4
SAGUACHE       NOT AVBL
$$

COZ035-036-038>040-211800-
...NORTHERN COLORADO FRONT RANGE...

CITY           SKY/WX    TMP DP  RH WIND       PRES   REMARKS
DENVER INTL AP PTSUNNY   65  45  48 VRB3      30.39S
DMNS CITY PARK   N/A     65  46  50 W5        30.38F
AURORA         PTSUNNY   61  46  56 NW5       30.40F
FRONT RANGE AP NOT AVBL
ERIE MUNI ARPT NOT AVBL
BOULDER MUN AP CLOUDY    63  43  48 CALM      30.38F
CENTENNIAL     PTSUNNY   62  46  55 CALM      30.40F
BROOMFIELD     NOT AVBL
FORT COLLINS   SUNNY     64  43  45 SE6       30.39F
LONGMONT       MOSUNNY   70  44  40 N3        30.39F
$$

COZ041-046-047-076>085-087-088-211800-
...PIKES PEAK/PALMER DIVIDE AND SOUTHERN FOOTHILLS...

CITY           SKY/WX    TMP DP  RH WIND       PRES   REMARKS
COLO. SPRINGS  PTSUNNY   65  50  58 S15G23    30.46S
A. F. ACADEMY  MOSUNNY   63  51  64 SE16      30.45S
ELLICOTT       NOT AVBL
FALCON         CLOUDY    63  48  59 S14G22    30.50R
FORT CARSON    CLOUDY    66  51  59 S14       30.44R
LIMON          CLOUDY    65  38  36 SE18      30.43S
MONUMENT HILL  CLOUDY    59  48  67 S13G20    30.46S
TRINIDAD       PTSUNNY   69  52  54 E12       30.41S
$$

COZ042>045-048>051-090-091-211800-
...NORTHEAST COLORADO...

CITY           SKY/WX    TMP DP  RH WIND       PRES   REMARKS
GREELEY ARPT   MOSUNNY   70  45  40 SE13G18   30.37F
AKRON          MOSUNNY   67  40  37 SE15G22   30.39F
BURLINGTON     PTSUNNY   68  35  29 SE12      30.40S
WRAY           SUNNY     72  34  25 E9        30.38F
STERLING       MOSUNNY   72  43  35 SE8       30.37S
HOLYOKE        SUNNY     73  41  31 E6        30.39S
FORT MORGAN    CLOUDY    65  38  37 SE13      30.39S
$$

COZ086-089-092>099-211800-
...SOUTHEAST COLORADO...

CITY           SKY/WX    TMP DP  RH WIND       PRES   REMARKS
PUEBLO         PTSUNNY   64  52  64 E12       30.40S
LA JUNTA       PTSUNNY   68  40  35 E13       30.39R
LAMAR          PTSUNNY   71  41  33 E12       30.36F
SPRINGFIELD      N/A     70  45  40 E14G21    30.37S
$$



USA.gov is the U.S. government's official web portal to all federal, state and local government web resources and services.